Погода в Старотитаровской

Россия / Краснодарский край     45°13′28″N   37°09′34″E
темп.,
°C
ветер,
м/с
пор.,
м/с
влажн.,
%
обл.,
%
осадки,
мм/ч
давл.,
гПа
погр.,
м
23 апреля, пт
пт2300:00+10юз46832 0.0 1024110
03:00+9ююз46855 0.0 1024110
06:00+9ююз46870 0.0 1024121
09:00+13ююз67645 0.0 1024594
12:00+15ююз786043 0.0 1023826
15:00+15ююз7858100 0.0 1022760
18:00+13ююз5867100 0.0 1020479
21:00+12ююз3774100 0.0 1020195
24 апреля, сб
сб2400:00+12ююз61079100 0.1 1020454
03:00+10ю510915 0.4 1018285
06:00+10юз5990100 0.0 1018286
09:00+13зсз567044 0.0 1019869
12:00+12сз677315 0.1 1021746
15:00+12ссз56550 0.1 1022822
18:00+12сз245056 0.0 1022579
21:00+10зсз1156100 0.0 102310
25 апреля, вс
вс2500:00+10зсз2357100 0.0 102341
03:00+9св5878100 0.0 1022254
06:00+8всв597772 0.0 1022281
09:00+10всв8959100 0.0 1021672
12:00+12св8949100 0.0 10201046
15:00+11ссв8961100 0.1 1018941
18:00+9св7978100 1.3 1017777
21:00+9св81183100 1.8 1017611
26 апреля, пн
пн2600:00+8св7987100 0.1 1016456
03:00+8св6993100 0.7 1016418
06:00+8св6893100 0.4 1015452
09:00+9св6891100 0.6 1015542
12:00+10ссв7883100 0.1 1015707
15:00+11с6671100 0.1 1016729
18:00+11ссз45601 0.0 1017489
21:00+8сз34725 0.0 101882
27 апреля, вт
вт2700:00+8ссз468842 0.0 1019149
03:00+7ссз2382100 0.0 101889
06:00+7св22782 0.0 101861
09:00+11вюв33575 0.0 1018642
12:00+13ююз67563 0.0 10171057
15:00+13ююз9116373 0.0 10161067
18:00+11зюз457591 0.1 1017516
21:00+11юз697499 0.1 1018577